sat.trackr.live / text

‹ back to catalog

QIANFAN-8

NORAD 60386 · 2024-140H

PAYLOAD ACTIVE UNKNOWN

§ Identity

Operator
Country
PRC
Launch date
2024-08-06
Launch site
TAISC
Launch vehicle
Mass (kg)
RCS (m²)

External: N2YO · Heavens-Above · Gunter

§ Orbital elements

Epoch: 2026-05-25T04:00:33.115680Z

Period
106.59 min
Inclination
88.9720°
Eccentricity
0.0018574
Mean motion
13.51005484 rev/d
Perigee alt
1,054.7 km
Apogee alt
1,082.4 km
Semi-major
7,446.7 km
B*
1.1520e-4
RAAN
282.3109°
Arg perigee
88.0614°
Mean anomaly
272.2664°
Rev number
8,941

§ Raw data

QIANFAN-81 60386U 24140H   26145.16704995  .00000087  00000+0  11520-3 0  99992 60386  88.9720 282.3109 0018574  88.0614 272.2664 13.51005484 89418

JSON: /api/v1/satellites/60386 · /tle

For live sub-satellite position, see the globe view (requires WebGL).

§ Visibility from observer

Set your observer location to see the next 7 days of passes ≥ 10°. The values pass through the URL so the page stays shareable.

No JS? Fill the form by hand. The geolocation button needs JavaScript.